[[{"header":{"parameterUnit":"m.s-1","parameterCategory":1,"la1":30.2992,"la2":30.254,"lo1":-89.0895,"lo2":-89.0443,"dy":0.0025,"dx":0.0025,"nx":19,"ny":19,"refTime":"2026-05-11T21:00:00:Z","depth":0,"parameterNumber":2,"parameterNumberName":"U-component_of_WINDS"},"data":[0,0,0,-5.5641,-5.5647,-5.5912,-5.5913,-5.6278,-5.6281,0,0,0,0,0,0,0,0,0,0,0,-5.5578,-5.5581,-5.5641,-5.5648,-5.5912,-5.5913,-5.6277,-5.6282,0,0,0,0,0,0,0,0,0,0,0,-5.5577,-5.5581,-5.5584,-5.5649,-5.5912,-5.5913,-5.6277,-5.6068,0,0,0,0,0,0,0,0,0,0,-5.5806,-5.5763,-5.558,-5.5584,-5.565,-5.5912,-5.5913,-5.6057,-5.6081,-5.6169,0,-5.6251,0,-5.6272,-5.6308,-5.6309,0,0,0,-5.5637,-5.5744,-5.5801,-5.5585,-5.5653,-5.5912,-5.579,-5.607,-5.6097,-5.62,-5.6256,-5.6269,-5.6278,-5.631,-5.6312,-5.6855,-5.6857,0,0,-5.5622,-5.5635,-5.5782,-5.5819,-5.5779,-5.5781,-5.5798,-5.6086,-5.6148,-5.6257,-5.6277,-5.6284,-5.6313,-5.6316,-5.6852,-5.6855,0,0,0,-5.5588,-5.5626,-5.5674,-5.5804,-5.585,-5.5789,-5.5809,-5.6135,-5.615,-5.6281,-5.6288,-5.6315,-5.632,-5.6848,-5.6853,-5.7018,0,0,0,-5.5578,-5.5605,-5.5669,-5.568,-5.5845,-5.5996,-5.5852,-5.613,-5.6162,-5.6287,-5.6315,-5.6323,-5.6845,-5.6851,-5.7006,-5.7095,0,0,0,-5.5556,-5.5602,-5.5646,-5.568,-5.5794,-5.5991,-5.6022,-5.6137,-5.6168,-5.6309,-5.6324,-5.6843,-5.685,-5.6995,-5.7078,-5.7243,0,0,0,-5.5536,-5.579,-5.5649,-5.5934,-5.5792,-5.6089,-5.602,-5.6241,-5.6382,-5.6317,-5.6845,-5.6853,-5.6992,-5.7067,-5.7232,-5.7387,-5.7451,0,0,-5.5864,-5.583,-5.5996,-5.5877,-5.6204,-5.6048,-5.6398,-5.6516,-5.6518,-5.6742,-5.6755,-5.701,-5.7077,-5.7241,-5.7803,-5.7854,0,0,0,-5.6105,-5.6225,-5.6308,-5.6442,-5.6535,-5.6623,-5.6684,-5.6727,-5.6916,-5.6635,-5.7111,-5.7151,-5.7247,-5.732,-5.7364,-5.7446,-5.6886,-5.6885,-5.6884,-5.6592,-5.6577,-5.6852,-5.6869,-5.6998,-5.7056,-5.716,-5.7228,-5.7178,-5.729,-5.7359,-5.7701,-5.7788,-5.7821,-5.7906,-5.7435,-5.7436,-5.7436,-5.7437,-5.7073,-5.7242,-5.7163,-5.7402,-5.7385,-5.7585,-5.7649,-5.7605,-5.779,-5.7649,-5.7733,-5.7584,-5.7877,-5.7952,-5.7449,-5.7447,-5.7445,-5.7444,-5.7443,-5.7394,-5.7473,-5.7517,-5.7705,-5.7852,-5.7858,-5.8037,-5.8014,-5.7995,-5.8077,-5.8147,-5.8144,-5.8141,-5.811,-5.8112,-5.8113,-5.8114,-5.8115,-5.8115,-5.7712,-5.7756,-5.7911,-5.8026,-5.8107,-5.821,-5.8265,-5.8345,-5.8426,-5.8396,-5.8396,-5.8336,-5.7907,-5.7802,-5.8134,-5.8131,-5.8128,-5.8127,-5.8125,-5.8215,-5.8095,-5.8334,-5.8414,-5.8546,-5.8693,-5.8657,-5.8819,-5.888,-5.8969,-5.8888,-5.8573,-5.8538,-5.8503,-5.8417,-5.8888,-5.8888,-5.8888,-5.8888,-5.8489,-5.8466,-5.8703,-5.8832,-5.8955,-5.8946,-5.9215,-5.9259,-5.9286,-5.9323,-5.9249,-5.913,-5.9095,-5.9081,-5.9034,-5.8953,-5.955,-5.9551,-5.9552,-5.8798,-5.8785,-5.902,-5.9042,-5.9141,-5.9228,-5.948,-5.9631,-5.9637,-5.9578,-5.9351,-5.9323,-5.9131,-5.9068,-5.9012,-5.8939,-5.879,0,0]},{"header":{"parameterUnit":"m.s-1","parameterCategory":1,"la1":30.2992,"la2":30.254,"lo1":-89.0895,"lo2":-89.0443,"dy":0.0025,"dx":0.0025,"nx":19,"ny":19,"refTime":"2026-05-11T21:00:00:Z","depth":0,"parameterNumber":3,"parameterNumberName":"V-component_of_WINDS"},"data":[0,0,0,-3.9415,-3.9417,-3.9492,-3.9492,-3.9606,-3.9607,0,0,0,0,0,0,0,0,0,0,0,-3.9404,-3.9406,-3.9415,-3.9417,-3.9492,-3.9492,-3.9606,-3.9607,0,0,0,0,0,0,0,0,0,0,0,-3.9404,-3.9405,-3.9407,-3.9417,-3.9492,-3.9492,-3.9606,-3.9542,0,0,0,0,0,0,0,0,0,0,-3.9466,-3.9468,-3.9405,-3.9407,-3.9418,-3.9492,-3.9492,-3.9539,-3.9546,-3.958,0,-3.9614,0,-3.9613,-3.9616,-3.9617,0,0,0,-3.9408,-3.9462,-3.9472,-3.9407,-3.9419,-3.9492,-3.9456,-3.9543,-3.9551,-3.959,-3.9615,-3.9619,-3.9614,-3.9617,-3.9618,-3.9844,-3.9845,0,0,-3.9404,-3.9424,-3.9466,-3.9478,-3.9469,-3.9453,-3.9458,-3.9548,-3.9576,-3.9616,-3.9621,-3.9616,-3.9618,-3.9619,-3.9843,-3.9844,0,0,0,-3.9398,-3.9422,-3.9429,-3.9474,-3.9486,-3.9456,-3.9461,-3.9572,-3.9573,-3.9622,-3.9618,-3.9619,-3.962,-3.9841,-3.9843,-3.9937,0,0,0,-3.9395,-3.9418,-3.9427,-3.9441,-3.9485,-3.953,-3.9485,-3.9567,-3.9576,-3.9617,-3.9619,-3.9621,-3.9839,-3.9842,-3.9931,-3.9979,0,0,0,-3.9396,-3.9418,-3.9433,-3.9441,-3.9475,-3.9529,-3.9534,-3.9568,-3.9574,-3.9617,-3.9622,-3.9838,-3.9842,-3.9926,-3.997,-4.0045,0,0,0,-3.9402,-3.9515,-3.9435,-3.9559,-3.9474,-3.9586,-3.9533,-3.9615,-3.9663,-3.9619,-3.9839,-3.9843,-3.9924,-3.9964,-4.0039,-4.0113,-4.0146,0,0,-3.9556,-3.9534,-3.9606,-3.9536,-3.9668,-3.9573,-3.9718,-3.9742,-3.9726,-3.9805,-3.9811,-3.9933,-3.9969,-4.0044,-4.0318,-4.0344,0,0,0,-3.9661,-3.9713,-3.9744,-3.9791,-3.9812,-3.9834,-3.9834,-3.9843,-3.9909,-3.9772,-3.9979,-4.0,-4.0043,-4.0078,-4.01,-4.0136,-3.9859,-3.9859,-3.9859,-3.9909,-3.9884,-4.0001,-3.9986,-4.0032,-4.003,-4.0065,-4.0076,-4.0037,-4.0086,-4.011,-4.028,-4.0321,-4.0337,-4.0375,-4.0146,-4.0146,-4.0147,-4.0147,-4.0134,-4.0204,-4.0149,-4.0243,-4.0216,-4.0294,-4.0296,-4.0266,-4.0334,-4.0259,-4.0296,-4.0218,-4.0366,-4.0398,-4.0154,-4.0152,-4.0152,-4.0151,-4.015,-4.0295,-4.0324,-4.0333,-4.0398,-4.0451,-4.043,-4.0499,-4.0471,-4.0444,-4.0481,-4.0503,-4.0502,-4.0498,-4.0493,-4.0494,-4.0494,-4.0495,-4.0495,-4.0496,-4.0459,-4.0466,-4.0528,-4.056,-4.0586,-4.0617,-4.0616,-4.0641,-4.0662,-4.0636,-4.0636,-4.0592,-4.0385,-4.0334,-4.0505,-4.0503,-4.0502,-4.0501,-4.05,-4.0698,-4.0639,-4.0735,-4.0762,-4.0797,-4.0852,-4.0815,-4.0868,-4.0884,-4.0919,-4.0867,-4.0718,-4.0694,-4.0676,-4.0634,-4.0871,-4.0871,-4.0871,-4.0872,-4.0835,-4.082,-4.0912,-4.0956,-4.0996,-4.0972,-4.1081,-4.1081,-4.1072,-4.108,-4.1041,-4.0982,-4.0965,-4.0951,-4.0927,-4.0888,-4.1185,-4.1185,-4.1185,-4.0981,-4.0969,-4.1067,-4.1058,-4.1083,-4.1106,-4.1207,-4.126,-4.1237,-4.1197,-4.1086,-4.1073,-4.0978,-4.0948,-4.0908,-4.0872,-4.0799,0,0]}]]